Tracking 29088 objects as of 14-Jul-2024
HD Live streaming from Space Station
objects crossing your sky now

COSMOS 1275 DEB

Track COSMOS 1275 DEB now!
10-day predictions


NORAD ID: 42130
Int'l Code: 1981-053QS
Perigee: 832.4 km
Apogee: 866.8 km
Inclination: 82.9 °
Period: 101.8 minutes
Semi major axis: 7220 km
RCS: Unknown
Launch date: June 4, 1981
Source: Commonwealth of Independent States (former USSR) (CIS)
Launch site: PLESETSK MISSILE AND SPACE COMPLEX (PKMTR)

Note: This is SATELLITE DEBRIS
Your satellite tracking list
Your tracking list is empty




NASA's NSSDC Master Catalog

Two Line Element Set (TLE):
1 42130U 81053QS  24194.99999161  .00004599  00000-0  23641-2 0  9995
2 42130  82.8603 295.5803 0023766 232.2868 127.6156 14.14958262546685
Source of the keplerian elements: AFSPC